DW4230 Weather Reports


time (UTC)temp
F
wind
direction
speed
knots
gust
knots
rain 1hr
in
rain 24hr
in
rain mn
in
humidity
%
barometer
mb
20200531071551 63 330 6.1 13.9 0.00 0.01 0.00 65 1010.7
20200531070009 63 338 3.5 12.2 0.00 0.01 0.00 65 1010.6
20200531064507 63 339 4.3 13.0 0.00 0.01 0.00 65 1010.5
20200531063102 64 322 5.2 13.0 0.00 0.01 0.00 65 1010.2
20200531061534 63 329 2.6 9.6 0.00 0.01 0.00 64 1010.3
20200531060106 63 2 4.3 12.2 0.00 0.03 0.00 63 1010.1
20200531054606 64 337 4.3 10.4 0.00 0.03 0.00 63 1010.0
20200531053106 64 344 5.2 14.8 0.00 0.03 0.00 63 1010.1
20200531044646 65 308 3.5 14.8 0.00 0.04 0.00 56 1010.3
20200531043140 64 287 2.6 10.4 0.00 0.04 0.00 43 1010.2
20200531041631 63 222 5.2 9.6 0.00 0.04 0.00 19 1010.1
20200531040149 63 243 4.3 8.7 0.00 0.04 0.04 20 1010.1
20200531034924 63 257 4.3 9.6 0.00 0.04 0.04 25 1010.1
20200531031517 64 242 3.5 7.8 0.00 0.04 0.04 34 1010.2
20200531030053 64 252 3.5 8.7 0.00 0.04 0.04 35 1010.1
20200531024528 64 270 3.5 8.7 0.00 0.04 0.04 33 1010.1
20200531023116 64 266 4.3 10.4 0.00 0.04 0.04 21 1010.2
20200531020016 62 240 3.5 7.0 0.00 0.04 0.04 100 1010.3
20200531014546 63 247 0.0 3.5 0.00 0.04 0.04 100 1010.2
20200531013210 63 248 0.0 6.1 0.00 0.04 0.04 100 1010.1
20200531011544 63 252 1.7 7.0 0.00 0.04 0.04 100 1010.2
20200531010026 63 251 3.5 7.8 0.00 0.04 0.04 100 1010.2
20200531004501 63 237 4.3 10.4 0.00 0.04 0.04 100 1010.2
20200531003010 63 231 4.3 8.7 0.00 0.04 0.04 100 1010.2
20200531001529 63 241 3.5 9.6 0.00 0.04 0.04 100 1010.1
20200531000045 63 267 6.1 11.3 0.00 0.04 0.04 100 1010.1
20200530234518 63 239 6.1 12.2 0.00 0.04 0.04 100 1009.9
20200530233036 63 204 8.7 13.9 0.00 0.04 0.04 100 1009.9
20200530231524 64 124 5.2 13.9 0.00 0.04 0.04 100 1009.8
20200530230106 65 225 8.7 13.9 0.00 0.04 0.04 100 1009.7
20200530224527 64 227 9.6 14.8 0.00 0.04 0.04 100 1009.6
20200530223100 63 189 4.3 13.9 0.00 0.04 0.04 100 1009.4
20200530221558 64 124 7.0 11.3 0.00 0.04 0.04 100 1009.3
20200530220135 64 191 7.0 13.0 0.00 0.04 0.04 100 1009.3
20200530214518 64 202 6.1 14.8 0.00 0.04 0.04 100 1009.4
20200530211732 64 242 7.8 12.2 0.00 0.04 0.04 100 1009.4
20200530210115 64 234 7.8 14.8 0.00 0.04 0.04 100 1009.3
20200530204732 64 218 7.0 13.0 0.00 0.04 0.04 100 1009.4
20200530203216 64 240 8.7 14.8 0.00 0.04 0.04 100 1009.6
20200530194722 62 194 5.2 12.2 0.00 0.05 0.04 100 1009.6
20200530193132 61 231 5.2 13.0 0.00 0.05 0.04 100 1009.7
20200530190128 62 181 7.8 13.0 0.00 0.05 0.04 100 1009.6
20200530184519 62 187 10.4 13.9 0.00 0.05 0.04 100 1009.5
20200530183111 63 214 6.1 13.0 0.00 0.05 0.04 100 1009.6
20200530181552 63 223 7.0 13.9 0.00 0.05 0.04 100 1009.6
20200530180206 62 237 8.7 13.9 0.00 0.05 0.04 100 1009.5
20200530173115 62 206 7.0 13.0 0.00 0.05 0.04 100 1009.7
20200530171610 61 222 10.4 13.9 0.00 0.05 0.04 100 1009.8
20200530170118 62 208 7.0 13.0 0.00 0.05 0.04 100 1009.9
20200530164527 62 216 4.3 11.3 0.00 0.05 0.04 100 1010.0
20200530163058 61 222 4.3 13.0 0.00 0.05 0.04 100 1010.1
20200530161506 61 204 7.0 13.9 0.00 0.05 0.04 100 1010.3
20200530160036 60 208 1.7 13.0 0.00 0.05 0.04 100 1010.4
20200530154538 60 214 6.1 11.3 0.00 0.05 0.04 100 1010.6
20200530153014 61 191 2.6 10.4 0.00 0.05 0.04 100 1010.7
20200530151640 60 200 6.1 11.3 0.00 0.05 0.04 100 1010.6
20200530150234 59 189 7.8 12.2 0.00 0.05 0.04 100 1010.6
20200530143008 60 194 7.8 12.2 0.00 0.08 0.04 100 1011.0
20200530141507 60 189 5.2 11.3 0.00 0.08 0.04 100 1010.9
20200530134610 59 202 6.1 9.6 0.00 0.08 0.04 100 1010.9
20200530133135 60 206 0.0 7.8 0.00 0.08 0.04 100 1011.0
20200530131602 60 210 1.7 8.7 0.00 0.08 0.04 100 1011.0
20200530123022 59 237 4.3 11.3 0.00 0.09 0.04 100 1011.1
20200530121526 59 242 5.2 9.6 0.00 0.09 0.04 100 1011.0
20200530120101 59 243 5.2 13.0 0.00 0.09 0.04 100 1011.0
20200530114535 58 273 6.1 13.9 0.00 0.09 0.04 100 1010.8
20200530113014 58 265 7.8 14.8 0.00 0.09 0.04 100 1011.1
20200530111514 59 239 7.8 15.6 0.00 0.09 0.04 100 1010.6
20200530110128 59 208 9.6 14.8 0.00 0.09 0.04 100 1010.6
20200530104552 59 272 8.7 13.9 0.00 0.09 0.04 100 1010.6
20200530103145 59 210 7.8 18.2 0.00 0.09 0.04 100 1010.5
20200530101725 58 229 7.8 14.8 0.01 0.09 0.04 100 1010.7
20200530100300 59 227 5.2 10.4 0.01 0.09 0.04 100 1010.7
20200530094628 59 218 6.1 12.2 0.01 0.09 0.04 100 1010.7
20200530093047 59 225 7.8 13.9 0.00 0.08 0.03 100 1010.8
20200530090007 59 225 7.8 12.2 0.00 0.08 0.03 100 1011.0
20200530084542 59 233 6.1 13.9 0.00 0.08 0.03 100 1011.1
20200530083011 59 235 4.3 11.3 0.00 0.08 0.03 100 1010.9
20200530080051 60 222 7.8 13.0 0.00 0.08 0.03 100 1011.2
20200530074557 60 233 5.2 14.8 0.00 0.08 0.03 100 1011.4